This demonstration page uses our WeatherBlox Daily Observations layout. Learn more.

Left ArrowRight Arrow

34.16533, -84.80231

Hourly Observations for October 1, 2017

Temp ( °F °C ) Dew Point ( °F °C ) Humidity (%) Winds ( mph kmh ) Pressure ( in mb ) Visibility ( mi km ) Precip ( " mm )
12:53 am 00:53 Clear 57 13.9 57 13.9 100 100 Calm 30.16 1021 10 16 0.00 0.00
1:53 am 01:53 Clear 63 17.2 55 12.8 76 76 VRB 5 7 30.16 1021 10 16 0.00 0.00
2:53 am 02:53 Clear 62 16.7 53 11.7 73 73 E 3 6 30.17 1022 10 16 0.00 0.00
3:53 am 03:53 Clear 63 17.2 46 7.8 54 54 E 8 13 30.17 1022 10 16 0.00 0.00
4:53 am 04:53 Clear 62 16.7 44 6.7 52 52 E 7 11 30.17 1022 10 16 0.00 0.00
5:53 am 05:53 Clear 61 16.1 44 6.7 54 54 VRB 6 9 30.18 1022 10 16 0.00 0.00
6:53 am 06:53 Clear 59 15 45 7.2 60 60 VRB 5 7 30.20 1023 10 16 0.00 0.00
7:53 am 07:53 Sunny 58 14.4 46 7.8 65 65 VRB 5 7 30.22 1024 10 16 0.00 0.00
8:53 am 08:53 Sunny 60 15.6 47 8.3 62 62 E 8 13 30.24 1024 10 16 0.00 0.00
9:53 am 09:53 Sunny 62 16.7 45 7.2 54 54 E 10 17 30.25 1025 10 16 0.00 0.00
10:53 am 10:53 Sunny 65 18.3 46 7.8 51 51 ESE 13 20 30.26 1025 10 16 0.00 0.00
11:53 am 11:53 Sunny 67 19.4 46 7.8 47 47 E 12 19 30.25 1025 10 16 0.00 0.00
12:53 pm 12:53 Sunny 70 21.1 46 7.8 42 42 ENE 12 19 30.23 1024 10 16 0.00 0.00
1:53 pm 13:53 Sunny 70 21.1 46 7.8 42 42 VRB 6 9 30.21 1023 10 16 0.00 0.00
2:53 pm 14:53 Sunny 72 22.2 46 7.8 40 40 E 8 13 30.18 1022 10 16 0.00 0.00
3:53 pm 15:53 Sunny 72 22.2 46 7.8 40 40 VRB 6 9 30.16 1021 10 16 0.00 0.00
4:53 pm 16:53 Sunny 72 22.2 45 7.2 38 38 VRB 6 9 30.15 1021 10 16 0.00 0.00
5:53 pm 17:53 Sunny 72 22.2 45 7.2 38 38 ESE 7 11 30.14 1021 10 16 0.00 0.00
6:53 pm 18:53 Sunny 68 20 47 8.3 47 47 ESE 5 7 30.15 1021 10 16 0.00 0.00
7:53 pm 19:53 Clear 61 16.1 49 9.4 65 65 Calm 30.17 1022 10 16 0.00 0.00
8:53 pm 20:53 Clear 59 15 49 9.4 69 69 Calm 30.19 1022 10 16 0.00 0.00
9:53 pm 21:53 Clear 56 13.3 49 9.4 77 77 Calm 30.21 1023 10 16 0.00 0.00
10:53 pm 22:53 Clear 60 15.6 48 8.9 65 65 ENE 3 6 30.22 1023 10 16 0.00 0.00
11:53 pm 23:53 Clear 61 16.1 47 8.3 60 60 VRB 6 9 30.23 1024 10 16 0.00 0.00

Powered by AerisWeather